FW3241 Weather Reports


time (UTC)temp
C
wind
direction
speed
KPH
gust
KPH
rain 1hr
cm
rain 24hr
cm
rain mn
cm
humidity
%
barometer
mb
20260503213028 15 252 1.6 4.8 0.00 0.00 0.00 26 1020.0
20260503211534 15 276 1.6 11.3 0.00 0.00 0.00 23 1020.1
20260503210021 15 238 3.2 6.4 0.00 0.00 0.00 23 1020.1
20260503204521 15 244 4.8 12.9 0.00 0.00 0.00 26 1020.3
20260503203022 16 237 4.8 9.7 0.00 0.00 0.00 24 1020.3
20260503201517 15 237 1.6 11.3 0.00 0.00 0.00 25 1020.4
20260503200017 15 243 0.0 8.0 0.00 0.00 0.00 27 1020.7
20260503194515 15 242 0.0 11.3 0.00 0.00 0.00 23 1020.7
20260503193030 15 252 3.2 6.4 0.00 0.00 0.00 26 1021.0
20260503191514 15 254 1.6 8.0 0.00 0.00 0.00 25 1021.1
20260503190020 14 261 0.0 6.4 0.00 0.00 0.00 31 1021.1
20260503184509 14 255 1.6 4.8 0.00 0.00 0.00 31 1021.3
20260503183006 14 275 3.2 6.4 0.00 0.00 0.00 35 1021.5
20260503181504 13 286 0.0 6.4 0.00 0.00 0.00 36 1021.5
20260503174617 12 292 1.6 4.8 0.00 0.00 0.00 37 1021.6
20260503173057 11 284 3.2 4.8 0.00 0.00 0.00 41 1021.7
20260503171552 11 269 1.6 6.4 0.00 0.00 0.00 42 1021.8
20260503100106 1 193 0.0 0.0 0.00 0.00 0.00 68 1020.3
20260503081547 1 193 0.0 3.2 0.00 0.00 0.00 66 1019.3
20260503071541 2 208 0.0 3.2 0.00 0.00 0.00 65 1018.8
20260503054530 3 208 0.0 1.6 0.00 0.00 0.00 61 1018.7
20260503053021 3 208 0.0 1.6 0.00 0.00 0.00 61 1018.7
20260503051520 3 208 0.0 1.6 0.00 0.00 0.00 60 1018.8
20260503050020 3 208 0.0 0.0 0.00 0.00 0.00 60 1018.7
20260503044518 3 208 0.0 1.6 0.00 0.00 0.00 61 1018.7
20260503043016 3 208 0.0 0.0 0.00 0.00 0.00 59 1018.7
20260503041514 3 208 0.0 1.6 0.00 0.00 0.00 60 1018.3
20260503040012 3 208 0.0 1.6 0.00 0.00 0.00 59 1018.2
20260503034510 3 208 0.0 1.6 0.00 0.00 0.00 58 1018.3
20260503033018 3 208 0.0 1.6 0.00 0.00 0.00 57 1018.2
20260503031507 3 208 0.0 0.0 0.00 0.00 0.00 58 1018.1
20260503030005 3 208 0.0 0.0 0.00 0.00 0.00 58 1018.1
20260503024505 3 208 0.0 1.6 0.00 0.00 0.00 57 1018.1
20260503023003 3 208 0.0 0.0 0.00 0.00 0.00 57 1017.9
20260503021602 3 208 0.0 0.0 0.00 0.00 0.00 58 1017.8
20260503020100 4 208 0.0 0.0 0.00 0.00 0.00 58 1017.6
20260503014615 4 208 0.0 0.0 0.00 0.00 0.00 58 1017.4
20260503013057 4 208 0.0 0.0 0.00 0.00 0.00 57 1017.2
20260503011554 5 208 0.0 1.6 0.00 0.00 0.00 54 1017.1
20260503010053 5 208 0.0 0.0 0.00 0.00 0.00 52 1016.9
20260503004551 6 208 0.0 0.0 0.00 0.00 0.00 50 1016.6
20260503003056 6 208 0.0 0.0 0.00 0.00 0.00 49 1016.5
20260503001606 6 208 0.0 0.0 0.00 0.00 0.00 47 1016.2
20260503000050 7 208 0.0 0.0 0.00 0.00 0.00 45 1016.1
20260502234549 7 208 0.0 0.0 0.00 0.00 0.00 44 1015.8
20260502233045 7 208 0.0 1.6 0.00 0.00 0.00 44 1015.8
20260502231543 8 208 0.0 3.2 0.00 0.00 0.00 41 1015.5
20260502230042 9 143 0.0 3.2 0.00 0.00 0.00 39 1015.3
20260502224541 9 143 0.0 3.2 0.00 0.00 0.00 41 1015.2
20260502223041 8 143 0.0 4.8 0.00 0.00 0.00 43 1015.0
20260502221544 8 186 0.0 1.6 0.00 0.00 0.00 43 1015.0
20260502220040 8 84 1.6 4.8 0.00 0.00 0.00 42 1014.6
20260502214547 8 145 0.0 3.2 0.00 0.00 0.00 38 1014.3